contact:dominique.lefevre@mio.osupytheas.fr, maurice.libes@osupytheas.fr, didier.mallarino@osupytheas.fr
Project:EMSO http://www.emso-fr.org/EMSO-France
Depth: 2436.0 m
Title:EMSO Ligure Ouest : Data MII capteur MICROCAT
DateTime_Computer,Latitude,Longitude,Temperature,Conductivity,Pressure,DateTime_Instrument
DateTime_Computer,Latitude,Longitude,degC,S m-1,dbar,DateTime_Instrument
2019-05-21T00:02:14Z,42.805,6.029,13.3009,4.60000,2469.61,2019-5-21T02:02:29Z
2019-05-21T00:05:17Z,42.805,6.029,13.3007,4.60001,2469.61,2019-5-21T02:05:32Z
2019-05-21T00:08:20Z,42.805,6.029,13.2997,4.59988,2469.62,2019-5-21T02:08:35Z
2019-05-21T00:11:23Z,42.805,6.029,13.2991,4.59997,2469.61,2019-5-21T02:11:37Z
2019-05-21T00:14:26Z,42.805,6.029,13.3005,4.59978,2469.61,2019-5-21T02:14:40Z
2019-05-21T00:17:29Z,42.805,6.029,13.2977,4.59985,2469.634,2019-5-21T02:17:43Z
2019-05-21T00:20:32Z,42.805,6.029,13.2999,4.59981,2469.61,2019-5-21T02:20:46Z
2019-05-21T00:23:35Z,42.805,6.029,13.2985,4.59992,2469.597,2019-5-21T02:23:49Z
2019-05-21T00:26:38Z,42.805,6.029,13.2982,4.59994,2469.61,2019-5-21T02:26:52Z
2019-05-21T00:29:41Z,42.805,6.029,13.2988,4.59981,2469.563,2019-5-21T02:29:55Z
2019-05-21T00:32:44Z,42.805,6.029,13.2983,4.60003,2469.61,2019-5-21T02:32:58Z
2019-05-21T00:35:47Z,42.805,6.029,13.2996,4.59981,2469.587,2019-5-21T02:36:01Z
2019-05-21T00:38:50Z,42.805,6.029,13.2989,4.59991,2469.597,2019-5-21T02:39:04Z
2019-05-21T00:41:53Z,42.805,6.029,13.2992,4.59979,2469.61,2019-5-21T02:42:07Z
2019-05-21T00:44:56Z,42.805,6.029,13.3004,4.59996,2469.61,2019-5-21T02:45:10Z
2019-05-21T00:47:59Z,42.805,6.029,13.2986,4.59980,2469.587,2019-5-21T02:48:13Z
2019-05-21T00:51:02Z,42.805,6.029,13.2995,4.59990,2469.587,2019-5-21T02:51:16Z
2019-05-21T00:54:05Z,42.805,6.029,13.2982,4.59980,2469.55,2019-5-21T02:54:19Z
2019-05-21T00:57:07Z,42.805,6.029,13.2997,4.59988,2469.573,2019-5-21T02:57:22Z
2019-05-21T01:00:10Z,42.805,6.029,13.2983,4.59982,2469.563,2019-5-21T03:00:25Z
2019-05-21T01:03:13Z,42.805,6.029,13.2981,4.60008,2469.587,2019-5-21T03:03:28Z
2019-05-21T01:06:16Z,42.805,6.029,13.2982,4.59995,2469.587,2019-5-21T03:06:31Z
2019-05-21T01:09:19Z,42.805,6.029,13.3006,4.60001,2469.587,2019-5-21T03:09:33Z
2019-05-21T01:12:22Z,42.805,6.029,13.2996,4.59990,2469.61,2019-5-21T03:12:36Z
2019-05-21T01:15:25Z,42.805,6.029,13.2993,4.59995,2469.563,2019-5-21T03:15:39Z
2019-05-21T01:18:28Z,42.805,6.029,13.3000,4.59994,2469.573,2019-5-21T03:18:42Z
2019-05-21T01:21:31Z,42.805,6.029,13.2981,4.59982,2469.573,2019-5-21T03:21:45Z
2019-05-21T01:24:34Z,42.805,6.029,13.3004,4.59991,2469.55,2019-5-21T03:24:48Z
2019-05-21T01:27:37Z,42.805,6.029,13.3046,4.59986,2469.563,2019-5-21T03:27:51Z
2019-05-21T01:30:40Z,42.805,6.029,13.3001,4.59986,2469.526,2019-5-21T03:30:54Z
2019-05-21T01:33:43Z,42.805,6.029,13.3020,4.59996,2469.55,2019-5-21T03:33:57Z
2019-05-21T01:36:46Z,42.805,6.029,13.2971,4.59987,2469.563,2019-5-21T03:37:00Z
2019-05-21T01:39:49Z,42.805,6.029,13.3002,4.59987,2469.563,2019-5-21T03:40:03Z
2019-05-21T01:42:52Z,42.805,6.029,13.2993,4.59993,2469.563,2019-5-21T03:43:06Z
2019-05-21T01:45:55Z,42.805,6.029,13.2981,4.59981,2469.587,2019-5-21T03:46:09Z
2019-05-21T01:48:58Z,42.805,6.029,13.2983,4.59992,2469.587,2019-5-21T03:49:12Z
2019-05-21T01:52:01Z,42.805,6.029,13.2950,4.59990,2469.55,2019-5-21T03:52:15Z
2019-05-21T01:55:03Z,42.805,6.029,13.2954,4.60009,2469.526,2019-5-21T03:55:18Z
2019-05-21T01:58:06Z,42.805,6.029,13.2953,4.59996,2469.54,2019-5-21T03:58:21Z
2019-05-21T02:01:09Z,42.805,6.029,13.2957,4.60007,2469.563,2019-5-21T04:01:24Z
2019-05-21T02:04:12Z,42.805,6.029,13.2958,4.60009,2469.573,2019-5-21T04:04:27Z
2019-05-21T02:07:15Z,42.805,6.029,13.3006,4.60000,2469.55,2019-5-21T04:07:30Z
2019-05-21T02:10:18Z,42.805,6.029,13.2971,4.60001,2469.526,2019-5-21T04:10:32Z
2019-05-21T02:13:21Z,42.805,6.029,13.2967,4.59996,2469.526,2019-5-21T04:13:35Z
2019-05-21T02:16:24Z,42.805,6.029,13.2983,4.59997,2469.55,2019-5-21T04:16:38Z
2019-05-21T02:19:27Z,42.805,6.029,13.2976,4.60000,2469.517,2019-5-21T04:19:41Z
2019-05-21T02:22:30Z,42.805,6.029,13.2956,4.60008,2469.526,2019-5-21T04:22:44Z
2019-05-21T02:25:33Z,42.805,6.029,13.2998,4.60006,2469.517,2019-5-21T04:25:47Z
2019-05-21T02:28:36Z,42.805,6.029,13.2969,4.59996,2469.503,2019-5-21T04:28:50Z
2019-05-21T02:31:39Z,42.805,6.029,13.2953,4.60007,2469.563,2019-5-21T04:31:53Z
2019-05-21T02:34:42Z,42.805,6.029,13.2953,4.59998,2469.517,2019-5-21T04:34:56Z
2019-05-21T02:37:45Z,42.805,6.029,13.2954,4.59974,2469.54,2019-5-21T04:37:59Z
2019-05-21T02:40:48Z,42.805,6.029,13.2957,4.59981,2469.526,2019-5-21T04:41:02Z
2019-05-21T02:43:51Z,42.805,6.029,13.2964,4.59987,2469.54,2019-5-21T04:44:05Z
2019-05-21T02:46:54Z,42.805,6.029,13.2958,4.59984,2469.526,2019-5-21T04:47:08Z
2019-05-21T02:49:57Z,42.805,6.029,13.2949,4.59976,2469.54,2019-5-21T04:50:11Z
2019-05-21T02:53:00Z,42.805,6.029,13.2949,4.59968,2469.526,2019-5-21T04:53:14Z
2019-05-21T02:56:03Z,42.805,6.029,13.2955,4.59967,2469.54,2019-5-21T04:56:17Z
2019-05-21T02:59:05Z,42.805,6.029,13.2951,4.59979,2469.517,2019-5-21T04:59:20Z
2019-05-21T03:02:08Z,42.805,6.029,13.2950,4.59967,2469.517,2019-5-21T05:02:23Z
2019-05-21T03:05:11Z,42.805,6.029,13.2949,4.59971,2469.526,2019-5-21T05:05:26Z
2019-05-21T03:08:14Z,42.805,6.029,13.2949,4.59970,2469.526,2019-5-21T05:08:29Z
2019-05-21T03:11:17Z,42.805,6.029,13.2952,4.59967,2469.503,2019-5-21T05:11:31Z
2019-05-21T03:14:20Z,42.805,6.029,13.2954,4.59967,2469.517,2019-5-21T05:14:34Z
2019-05-21T03:17:23Z,42.805,6.029,13.2952,4.59972,2469.517,2019-5-21T05:17:37Z
2019-05-21T03:20:26Z,42.805,6.029,13.2950,4.59972,2469.503,2019-5-21T05:20:40Z
2019-05-21T03:23:29Z,42.805,6.029,13.2967,4.59963,2469.517,2019-5-21T05:23:43Z
2019-05-21T03:26:32Z,42.805,6.029,13.2957,4.59985,2469.517,2019-5-21T05:26:46Z
2019-05-21T03:29:35Z,42.805,6.029,13.2953,4.59978,2469.517,2019-5-21T05:29:49Z
2019-05-21T03:32:38Z,42.805,6.029,13.2949,4.59971,2469.517,2019-5-21T05:32:52Z
2019-05-21T03:35:41Z,42.805,6.029,13.3001,4.59964,2469.517,2019-5-21T05:35:55Z
2019-05-21T03:38:44Z,42.805,6.029,13.2954,4.59983,2469.517,2019-5-21T05:38:58Z
2019-05-21T03:41:47Z,42.805,6.029,13.2951,4.59970,2469.517,2019-5-21T05:42:01Z
2019-05-21T03:44:50Z,42.805,6.029,13.2951,4.59966,2469.526,2019-5-21T05:45:04Z
2019-05-21T03:47:53Z,42.805,6.029,13.2952,4.59975,2469.517,2019-5-21T05:48:07Z
2019-05-21T03:50:56Z,42.805,6.029,13.2953,4.59971,2469.517,2019-5-21T05:51:10Z
2019-05-21T03:53:59Z,42.805,6.029,13.2956,4.59988,2469.54,2019-5-21T05:54:13Z
2019-05-21T03:57:01Z,42.805,6.029,13.2953,4.59976,2469.517,2019-5-21T05:57:16Z
2019-05-21T04:00:04Z,42.805,6.029,13.2953,4.59991,2469.54,2019-5-21T06:00:19Z
2019-05-21T04:03:07Z,42.805,6.029,13.2953,4.59980,2469.563,2019-5-21T06:03:22Z
2019-05-21T04:06:10Z,42.805,6.029,13.2954,4.59976,2469.48,2019-5-21T06:06:25Z
2019-05-21T04:09:13Z,42.805,6.029,13.2956,4.59972,2469.503,2019-5-21T06:09:27Z
2019-05-21T04:12:16Z,42.805,6.029,13.2952,4.59987,2469.563,2019-5-21T06:12:30Z
2019-05-21T04:15:19Z,42.805,6.029,13.2958,4.59986,2469.54,2019-5-21T06:15:33Z
2019-05-21T04:18:22Z,42.805,6.029,13.2965,4.60001,2469.54,2019-5-21T06:18:36Z
2019-05-21T04:21:25Z,42.805,6.029,13.2965,4.59985,2469.526,2019-5-21T06:21:39Z
2019-05-21T04:24:28Z,42.805,6.029,13.3001,4.59992,2469.54,2019-5-21T06:24:42Z
2019-05-21T04:27:31Z,42.805,6.029,13.2953,4.60008,2469.517,2019-5-21T06:27:45Z
2019-05-21T04:30:34Z,42.805,6.029,13.2955,4.59969,2469.54,2019-5-21T06:30:48Z
2019-05-21T04:33:37Z,42.805,6.029,13.2952,4.59979,2469.563,2019-5-21T06:33:51Z
2019-05-21T04:36:40Z,42.805,6.029,13.2952,4.59971,2469.526,2019-5-21T06:36:54Z
2019-05-21T04:39:43Z,42.805,6.029,13.2955,4.59968,2469.517,2019-5-21T06:39:57Z
2019-05-21T04:42:46Z,42.805,6.029,13.2953,4.59967,2469.55,2019-5-21T06:43:00Z
2019-05-21T04:45:49Z,42.805,6.029,13.2954,4.59973,2469.55,2019-5-21T06:46:03Z
2019-05-21T04:48:52Z,42.805,6.029,13.2951,4.59974,2469.54,2019-5-21T06:49:06Z
2019-05-21T04:51:55Z,42.805,6.029,13.2950,4.59972,2469.563,2019-5-21T06:52:09Z
2019-05-21T04:54:57Z,42.805,6.029,13.2952,4.59976,2469.563,2019-5-21T06:55:12Z
2019-05-21T04:58:00Z,42.805,6.029,13.2953,4.59978,2469.54,2019-5-21T06:58:15Z
2019-05-21T05:01:03Z,42.805,6.029,13.2952,4.59981,2469.54,2019-5-21T07:01:18Z
2019-05-21T05:04:06Z,42.805,6.029,13.2949,4.59963,2469.526,2019-5-21T07:04:21Z
2019-05-21T05:07:09Z,42.805,6.029,13.2953,4.59959,2469.563,2019-5-21T07:07:23Z
2019-05-21T05:10:12Z,42.805,6.029,13.2953,4.59957,2469.563,2019-5-21T07:10:26Z
2019-05-21T05:13:15Z,42.805,6.029,13.2952,4.59962,2469.55,2019-5-21T07:13:29Z
2019-05-21T05:16:18Z,42.805,6.029,13.2952,4.59967,2469.587,2019-5-21T07:16:32Z
2019-05-21T05:19:21Z,42.805,6.029,13.2953,4.59966,2469.563,2019-5-21T07:19:35Z
2019-05-21T05:22:24Z,42.805,6.029,13.2955,4.59964,2469.54,2019-5-21T07:22:38Z
2019-05-21T05:25:27Z,42.805,6.029,13.2953,4.59958,2469.55,2019-5-21T07:25:41Z
2019-05-21T05:28:30Z,42.805,6.029,13.2953,4.59964,2469.563,2019-5-21T07:28:44Z
2019-05-21T05:31:33Z,42.805,6.029,13.2952,4.59962,2469.587,2019-5-21T07:31:47Z
2019-05-21T05:34:36Z,42.805,6.029,13.2953,4.59968,2469.54,2019-5-21T07:34:50Z
2019-05-21T05:37:39Z,42.805,6.029,13.2956,4.59966,2469.587,2019-5-21T07:37:53Z
2019-05-21T05:40:42Z,42.805,6.029,13.2954,4.59956,2469.573,2019-5-21T07:40:56Z
2019-05-21T05:43:45Z,42.805,6.029,13.2952,4.59955,2469.513,2019-5-21T07:43:59Z
2019-05-21T05:46:48Z,42.805,6.029,13.2953,4.59956,2469.597,2019-5-21T07:47:02Z
2019-05-21T05:49:51Z,42.805,6.029,13.2950,4.59962,2469.597,2019-5-21T07:50:05Z
2019-05-21T05:52:54Z,42.805,6.029,13.2952,4.59958,2469.55,2019-5-21T07:53:08Z
2019-05-21T05:55:56Z,42.805,6.029,13.2952,4.59962,2469.61,2019-5-21T07:56:11Z
2019-05-21T05:58:59Z,42.805,6.029,13.2949,4.59956,2469.573,2019-5-21T07:59:14Z
2019-05-21T06:02:02Z,42.805,6.029,13.2955,4.59958,2469.597,2019-5-21T08:02:17Z
2019-05-21T06:05:05Z,42.805,6.029,13.2952,4.59956,2469.587,2019-5-21T08:05:20Z
2019-05-21T06:08:08Z,42.805,6.029,13.2952,4.59960,2469.587,2019-5-21T08:08:22Z
2019-05-21T06:11:11Z,42.805,6.029,13.2952,4.59961,2469.55,2019-5-21T08:11:25Z
2019-05-21T06:14:14Z,42.805,6.029,13.2947,4.59956,2469.597,2019-5-21T08:14:28Z
2019-05-21T06:17:17Z,42.805,6.029,13.2952,4.59956,2469.61,2019-5-21T08:17:31Z
2019-05-21T06:20:20Z,42.805,6.029,13.2952,4.59958,2469.573,2019-5-21T08:20:34Z
2019-05-21T06:23:23Z,42.805,6.029,13.2953,4.59961,2469.62,2019-5-21T08:23:37Z
2019-05-21T06:26:26Z,42.805,6.029,13.2953,4.59963,2469.634,2019-5-21T08:26:40Z
2019-05-21T06:29:29Z,42.805,6.029,13.2953,4.59960,2469.587,2019-5-21T08:29:43Z
2019-05-21T06:32:32Z,42.805,6.029,13.2950,4.59955,2469.657,2019-5-21T08:32:46Z
2019-05-21T06:35:35Z,42.805,6.029,13.2948,4.59953,2469.61,2019-5-21T08:35:49Z
2019-05-21T06:38:38Z,42.805,6.029,13.2952,4.59965,2469.597,2019-5-21T08:38:52Z
2019-05-21T06:41:41Z,42.805,6.029,13.2950,4.59958,2469.62,2019-5-21T08:41:55Z
2019-05-21T06:44:44Z,42.805,6.029,13.2953,4.59958,2469.643,2019-5-21T08:44:58Z
2019-05-21T06:47:47Z,42.805,6.029,13.2953,4.59957,2469.667,2019-5-21T08:48:01Z
2019-05-21T06:50:50Z,42.805,6.029,13.2944,4.59956,2469.634,2019-5-21T08:51:04Z
2019-05-21T06:53:52Z,42.805,6.029,13.2954,4.59955,2469.634,2019-5-21T08:54:07Z
2019-05-21T06:56:55Z,42.805,6.029,13.2952,4.59958,2469.657,2019-5-21T08:57:10Z
2019-05-21T06:59:58Z,42.805,6.029,13.2946,4.59956,2469.643,2019-5-21T09:00:13Z
2019-05-21T07:03:01Z,42.805,6.029,13.2952,4.59957,2469.657,2019-5-21T09:03:16Z
2019-05-21T07:06:04Z,42.805,6.029,13.2954,4.59959,2469.62,2019-5-21T09:06:18Z
2019-05-21T07:09:07Z,42.805,6.029,13.2952,4.59960,2469.634,2019-5-21T09:09:21Z
2019-05-21T07:12:10Z,42.805,6.029,13.2952,4.59957,2469.643,2019-5-21T09:12:24Z
2019-05-21T07:15:13Z,42.805,6.029,13.2950,4.59958,2469.657,2019-5-21T09:15:27Z
2019-05-21T07:18:16Z,42.805,6.029,13.2953,4.59960,2469.657,2019-5-21T09:18:30Z
2019-05-21T07:21:19Z,42.805,6.029,13.2954,4.59958,2469.68,2019-5-21T09:21:33Z
2019-05-21T07:24:22Z,42.805,6.029,13.2949,4.59956,2469.667,2019-5-21T09:24:36Z
2019-05-21T07:27:25Z,42.805,6.029,13.2952,4.59958,2469.657,2019-5-21T09:27:39Z
2019-05-21T07:30:28Z,42.805,6.029,13.2954,4.59957,2469.62,2019-5-21T09:30:42Z
2019-05-21T07:33:31Z,42.805,6.029,13.2950,4.59956,2469.62,2019-5-21T09:33:45Z
2019-05-21T07:36:34Z,42.805,6.029,13.2957,4.59954,2469.657,2019-5-21T09:36:48Z
2019-05-21T07:39:37Z,42.805,6.029,13.2951,4.59957,2469.657,2019-5-21T09:39:51Z
2019-05-21T07:42:40Z,42.805,6.029,13.2952,4.59958,2469.667,2019-5-21T09:42:54Z
2019-05-21T07:45:43Z,42.805,6.029,13.2952,4.59956,2469.62,2019-5-21T09:45:57Z
2019-05-21T07:48:46Z,42.805,6.029,13.2952,4.59955,2469.69,2019-5-21T09:49:00Z
2019-05-21T07:51:49Z,42.805,6.029,13.2955,4.59956,2469.657,2019-5-21T09:52:03Z
2019-05-21T07:54:51Z,42.805,6.029,13.2953,4.59953,2469.657,2019-5-21T09:55:06Z
2019-05-21T07:57:54Z,42.805,6.029,13.2950,4.59956,2469.634,2019-5-21T09:58:09Z
2019-05-21T08:00:57Z,42.805,6.029,13.2952,4.59954,2469.643,2019-5-21T10:01:12Z
2019-05-21T08:04:00Z,42.805,6.029,13.2954,4.59951,2469.69,2019-5-21T10:04:15Z
2019-05-21T08:07:03Z,42.805,6.029,13.2950,4.59958,2469.657,2019-5-21T10:07:18Z
2019-05-21T08:10:06Z,42.805,6.029,13.2952,4.59956,2469.704,2019-5-21T10:10:20Z
2019-05-21T08:13:09Z,42.805,6.029,13.2956,4.59956,2469.657,2019-5-21T10:13:23Z
2019-05-21T08:16:12Z,42.805,6.029,13.2957,4.59954,2469.657,2019-5-21T10:16:26Z
2019-05-21T08:19:15Z,42.805,6.029,13.2954,4.59958,2469.657,2019-5-21T10:19:29Z
2019-05-21T08:22:18Z,42.805,6.029,13.2952,4.59967,2469.657,2019-5-21T10:22:32Z
2019-05-21T08:25:21Z,42.805,6.029,13.2951,4.59951,2469.667,2019-5-21T10:25:35Z
2019-05-21T08:28:24Z,42.805,6.029,13.2957,4.59954,2469.68,2019-5-21T10:28:38Z
2019-05-21T08:31:27Z,42.805,6.029,13.2953,4.59960,2469.69,2019-5-21T10:31:41Z
2019-05-21T08:34:30Z,42.805,6.029,13.2956,4.59954,2469.643,2019-5-21T10:34:44Z
2019-05-21T08:37:33Z,42.805,6.029,13.2946,4.59954,2469.68,2019-5-21T10:37:47Z
2019-05-21T08:40:36Z,42.805,6.029,13.2952,4.59952,2469.667,2019-5-21T10:40:50Z
2019-05-21T08:43:39Z,42.805,6.029,13.2951,4.59951,2469.62,2019-5-21T10:43:53Z
2019-05-21T08:46:42Z,42.805,6.029,13.2953,4.59952,2469.667,2019-5-21T10:46:56Z
2019-05-21T08:49:45Z,42.805,6.029,13.2953,4.59961,2469.667,2019-5-21T10:49:59Z
2019-05-21T08:52:48Z,42.805,6.029,13.2948,4.59954,2469.634,2019-5-21T10:53:02Z
2019-05-21T08:55:51Z,42.805,6.029,13.2953,4.59955,2469.657,2019-5-21T10:56:05Z
2019-05-21T08:58:54Z,42.805,6.029,13.2949,4.59958,2469.657,2019-5-21T10:59:08Z
2019-05-21T09:01:56Z,42.805,6.029,13.2952,4.59954,2469.657,2019-5-21T11:02:11Z
2019-05-21T09:04:59Z,42.805,6.029,13.2955,4.59956,2469.68,2019-5-21T11:05:14Z
2019-05-21T09:08:02Z,42.805,6.029,13.2950,4.59958,2469.657,2019-5-21T11:08:17Z
2019-05-21T09:11:05Z,42.805,6.029,13.2952,4.59953,2469.634,2019-5-21T11:11:20Z
2019-05-21T09:14:08Z,42.805,6.029,13.2952,4.59953,2469.667,2019-5-21T11:14:22Z
2019-05-21T09:17:11Z,42.805,6.029,13.2952,4.59954,2469.667,2019-5-21T11:17:25Z
2019-05-21T09:20:14Z,42.805,6.029,13.2953,4.59954,2469.62,2019-5-21T11:20:28Z
2019-05-21T09:23:17Z,42.805,6.029,13.2953,4.59956,2469.643,2019-5-21T11:23:31Z
2019-05-21T09:26:20Z,42.805,6.029,13.2951,4.59956,2469.634,2019-5-21T11:26:34Z
2019-05-21T09:29:23Z,42.805,6.029,13.2954,4.59958,2469.634,2019-5-21T11:29:37Z
2019-05-21T09:32:26Z,42.805,6.029,13.2952,4.59964,2469.657,2019-5-21T11:32:40Z
2019-05-21T09:35:29Z,42.805,6.029,13.2950,4.59959,2469.634,2019-5-21T11:35:43Z
2019-05-21T09:38:32Z,42.805,6.029,13.2948,4.59982,2469.643,2019-5-21T11:38:46Z
2019-05-21T09:41:35Z,42.805,6.029,13.2952,4.59962,2469.62,2019-5-21T11:41:49Z
2019-05-21T09:44:38Z,42.805,6.029,13.2952,4.59963,2469.68,2019-5-21T11:44:52Z
2019-05-21T09:47:41Z,42.805,6.029,13.2950,4.59960,2469.62,2019-5-21T11:47:55Z
2019-05-21T09:50:44Z,42.805,6.029,13.2950,4.59973,2469.657,2019-5-21T11:50:58Z
2019-05-21T09:53:47Z,42.805,6.029,13.2950,4.59999,2469.634,2019-5-21T11:54:01Z
2019-05-21T09:56:50Z,42.805,6.029,13.2948,4.59964,2469.643,2019-5-21T11:57:04Z
2019-05-21T09:59:53Z,42.805,6.029,13.2950,4.59966,2469.634,2019-5-21T12:00:07Z
2019-05-21T10:02:56Z,42.805,6.029,13.2952,4.59956,2469.643,2019-5-21T12:03:10Z
2019-05-21T10:05:58Z,42.805,6.029,13.3090,4.60023,2469.62,2019-5-21T12:06:13Z
2019-05-21T10:09:01Z,42.805,6.029,13.2953,4.59983,2469.61,2019-5-21T12:09:16Z
2019-05-21T10:12:04Z,42.805,6.029,13.2952,4.59994,2469.587,2019-5-21T12:12:19Z
2019-05-21T10:15:07Z,42.805,6.029,13.2951,4.59988,2469.634,2019-5-21T12:15:22Z
2019-05-21T10:18:10Z,42.805,6.029,13.2954,4.59995,2469.62,2019-5-21T12:18:25Z
2019-05-21T10:21:13Z,42.805,6.029,13.2952,4.59986,2469.61,2019-5-21T12:21:27Z
2019-05-21T10:24:16Z,42.805,6.029,13.2952,4.60009,2469.597,2019-5-21T12:24:30Z
2019-05-21T10:27:19Z,42.805,6.029,13.2953,4.59999,2469.62,2019-5-21T12:27:33Z
2019-05-21T10:30:22Z,42.805,6.029,13.2952,4.60017,2469.61,2019-5-21T12:30:36Z
2019-05-21T10:33:25Z,42.805,6.029,13.2980,4.59981,2469.61,2019-5-21T12:33:39Z
2019-05-21T10:36:28Z,42.805,6.029,13.2984,4.59966,2469.597,2019-5-21T12:36:42Z
2019-05-21T10:39:31Z,42.805,6.029,13.3004,4.59982,2469.597,2019-5-21T12:39:45Z
2019-05-21T10:42:34Z,42.805,6.029,13.2998,4.59980,2469.61,2019-5-21T12:42:48Z
2019-05-21T10:45:37Z,42.805,6.029,13.2997,4.59979,2469.643,2019-5-21T12:45:51Z
2019-05-21T10:48:40Z,42.805,6.029,13.3011,4.59999,2469.62,2019-5-21T12:48:54Z
2019-05-21T10:51:43Z,42.805,6.029,13.3040,4.60003,2469.573,2019-5-21T12:51:57Z
2019-05-21T10:54:46Z,42.805,6.029,13.3035,4.60003,2469.624,2019-5-21T12:55:00Z
2019-05-21T10:57:49Z,42.805,6.029,13.3038,4.60021,2469.563,2019-5-21T12:58:03Z
2019-05-21T11:00:52Z,42.805,6.029,13.3004,4.60014,2469.563,2019-5-21T13:01:06Z
2019-05-21T11:03:55Z,42.805,6.029,13.3026,4.59999,2469.624,2019-5-21T13:04:09Z
2019-05-21T11:06:58Z,42.805,6.029,13.3033,4.60003,2469.61,2019-5-21T13:07:12Z
2019-05-21T11:10:00Z,42.805,6.029,13.3036,4.59997,2469.587,2019-5-21T13:10:15Z
2019-05-21T11:13:03Z,42.805,6.029,13.3024,4.59993,2469.597,2019-5-21T13:13:18Z
2019-05-21T11:16:06Z,42.805,6.029,13.3013,4.60029,2469.573,2019-5-21T13:16:21Z
2019-05-21T11:19:09Z,42.805,6.029,13.3006,4.60025,2469.563,2019-5-21T13:19:24Z
2019-05-21T11:22:12Z,42.805,6.029,13.3006,4.60026,2469.563,2019-5-21T13:22:27Z
2019-05-21T11:25:15Z,42.805,6.029,13.2985,4.60014,2469.587,2019-5-21T13:25:30Z
2019-05-21T11:28:18Z,42.805,6.029,13.2986,4.60048,2469.597,2019-5-21T13:28:32Z
2019-05-21T11:31:21Z,42.805,6.029,13.2982,4.60051,2469.563,2019-5-21T13:31:35Z
2019-05-21T11:34:24Z,42.805,6.029,13.3031,4.60078,2469.563,2019-5-21T13:34:38Z
2019-05-21T11:37:27Z,42.805,6.029,13.3030,4.60071,2469.563,2019-5-21T13:37:41Z
2019-05-21T11:40:30Z,42.805,6.029,13.3043,4.60029,2469.563,2019-5-21T13:40:44Z
2019-05-21T11:43:33Z,42.805,6.029,13.2987,4.60076,2469.563,2019-5-21T13:43:47Z
2019-05-21T11:46:36Z,42.805,6.029,13.3031,4.60021,2469.563,2019-5-21T13:46:50Z
2019-05-21T11:49:39Z,42.805,6.029,13.3006,4.60008,2469.55,2019-5-21T13:49:53Z
2019-05-21T11:52:42Z,42.805,6.029,13.2998,4.60063,2469.563,2019-5-21T13:52:56Z
2019-05-21T11:55:45Z,42.805,6.029,13.2998,4.60026,2469.587,2019-5-21T13:55:59Z
2019-05-21T11:58:48Z,42.805,6.029,13.3026,4.60037,2469.54,2019-5-21T13:59:02Z
2019-05-21T12:01:51Z,42.805,6.029,13.3001,4.60033,2469.503,2019-5-21T14:02:05Z
2019-05-21T12:04:54Z,42.805,6.029,13.3021,4.59990,2469.54,2019-5-21T14:05:08Z
2019-05-21T12:07:57Z,42.805,6.029,13.3046,4.60021,2469.573,2019-5-21T14:08:11Z
2019-05-21T12:11:00Z,42.805,6.029,13.3004,4.60016,2469.54,2019-5-21T14:11:14Z
2019-05-21T12:14:03Z,42.805,6.029,13.3034,4.60028,2469.563,2019-5-21T14:14:17Z
2019-05-21T12:17:05Z,42.805,6.029,13.3049,4.60023,2469.563,2019-5-21T14:17:20Z
2019-05-21T12:20:08Z,42.805,6.029,13.3026,4.60007,2469.54,2019-5-21T14:20:23Z
2019-05-21T12:23:11Z,42.805,6.029,13.3025,4.60010,2469.563,2019-5-21T14:23:26Z
2019-05-21T12:26:14Z,42.805,6.029,13.3030,4.60018,2469.54,2019-5-21T14:26:29Z
2019-05-21T12:29:17Z,42.805,6.029,13.3019,4.60009,2469.563,2019-5-21T14:29:32Z
2019-05-21T12:32:20Z,42.805,6.029,13.3039,4.59993,2469.517,2019-5-21T14:32:35Z
2019-05-21T12:35:23Z,42.805,6.029,13.3024,4.59991,2469.563,2019-5-21T14:35:37Z
2019-05-21T12:38:26Z,42.805,6.029,13.3019,4.60002,2469.526,2019-5-21T14:38:40Z
2019-05-21T12:41:29Z,42.805,6.029,13.3013,4.60007,2469.517,2019-5-21T14:41:43Z
2019-05-21T12:44:32Z,42.805,6.029,13.3014,4.60011,2469.55,2019-5-21T14:44:46Z
2019-05-21T12:47:35Z,42.805,6.029,13.2982,4.60015,2469.563,2019-5-21T14:47:49Z
2019-05-21T12:50:38Z,42.805,6.029,13.3032,4.60007,2469.54,2019-5-21T14:50:52Z
2019-05-21T12:53:41Z,42.805,6.029,13.3014,4.60003,2469.54,2019-5-21T14:53:55Z
2019-05-21T12:56:44Z,42.805,6.029,13.3009,4.60001,2469.54,2019-5-21T14:56:58Z
2019-05-21T12:59:47Z,42.805,6.029,13.3021,4.60001,2469.503,2019-5-21T15:00:01Z
2019-05-21T13:02:50Z,42.805,6.029,13.3011,4.60019,2469.54,2019-5-21T15:03:04Z
2019-05-21T13:05:53Z,42.805,6.029,13.3004,4.60000,2469.513,2019-5-21T15:06:07Z
2019-05-21T13:08:56Z,42.805,6.029,13.2980,4.60029,2469.563,2019-5-21T15:09:10Z
2019-05-21T13:11:59Z,42.805,6.029,13.2979,4.59991,2469.47,2019-5-21T15:12:13Z
2019-05-21T13:15:02Z,42.805,6.029,13.2990,4.59991,2469.503,2019-5-21T15:15:16Z
2019-05-21T13:18:05Z,42.805,6.029,13.3005,4.59973,2469.503,2019-5-21T15:18:19Z
2019-05-21T13:21:08Z,42.805,6.029,13.2995,4.59983,2469.503,2019-5-21T15:21:22Z
2019-05-21T13:24:10Z,42.805,6.029,13.2984,4.59998,2469.54,2019-5-21T15:24:25Z
2019-05-21T13:27:13Z,42.805,6.029,13.2989,4.59972,2469.503,2019-5-21T15:27:28Z
2019-05-21T13:30:16Z,42.805,6.029,13.3009,4.59981,2469.526,2019-5-21T15:30:31Z
2019-05-21T13:33:19Z,42.805,6.029,13.2997,4.59994,2469.517,2019-5-21T15:33:34Z
2019-05-21T13:36:22Z,42.805,6.029,13.2986,4.59974,2469.517,2019-5-21T15:36:37Z
2019-05-21T13:39:25Z,42.805,6.029,13.2987,4.59990,2469.54,2019-5-21T15:39:39Z
2019-05-21T13:42:28Z,42.805,6.029,13.2988,4.59984,2469.503,2019-5-21T15:42:42Z
2019-05-21T13:45:31Z,42.805,6.029,13.2991,4.59991,2469.494,2019-5-21T15:45:45Z
2019-05-21T13:48:34Z,42.805,6.029,13.2983,4.59992,2469.48,2019-5-21T15:48:48Z
2019-05-21T13:51:37Z,42.805,6.029,13.2990,4.59981,2469.503,2019-5-21T15:51:51Z
2019-05-21T13:54:40Z,42.805,6.029,13.2997,4.59986,2469.517,2019-5-21T15:54:54Z
2019-05-21T13:57:43Z,42.805,6.029,13.2979,4.59984,2469.54,2019-5-21T15:57:57Z
2019-05-21T14:00:46Z,42.805,6.029,13.2995,4.59993,2469.494,2019-5-21T16:01:00Z
2019-05-21T14:03:49Z,42.805,6.029,13.2979,4.59979,2469.517,2019-5-21T16:04:03Z
2019-05-21T14:06:52Z,42.805,6.029,13.2982,4.59979,2469.54,2019-5-21T16:07:06Z
2019-05-21T14:09:55Z,42.805,6.029,13.2998,4.59988,2469.503,2019-5-21T16:10:09Z
2019-05-21T14:12:58Z,42.805,6.029,13.2988,4.59993,2469.517,2019-5-21T16:13:12Z
2019-05-21T14:16:01Z,42.805,6.029,13.2990,4.59986,2469.54,2019-5-21T16:16:15Z
2019-05-21T14:19:04Z,42.805,6.029,13.2991,4.59985,2469.517,2019-5-21T16:19:18Z
2019-05-21T14:22:07Z,42.805,6.029,13.2990,4.60001,2469.517,2019-5-21T16:22:21Z
2019-05-21T14:25:09Z,42.805,6.029,13.3001,4.59994,2469.503,2019-5-21T16:25:24Z
2019-05-21T14:28:12Z,42.805,6.029,13.2992,4.59980,2469.503,2019-5-21T16:28:27Z
2019-05-21T14:31:15Z,42.805,6.029,13.3015,4.59982,2469.517,2019-5-21T16:31:30Z
2019-05-21T14:34:18Z,42.805,6.029,13.2996,4.59990,2469.48,2019-5-21T16:34:33Z
2019-05-21T14:37:21Z,42.805,6.029,13.3000,4.59983,2469.48,2019-5-21T16:37:36Z
2019-05-21T14:40:24Z,42.805,6.029,13.3003,4.59984,2469.48,2019-5-21T16:40:39Z
2019-05-21T14:43:27Z,42.805,6.029,13.2978,4.59981,2469.517,2019-5-21T16:43:42Z
2019-05-21T14:46:30Z,42.805,6.029,13.2991,4.59985,2469.48,2019-5-21T16:46:44Z
2019-05-21T14:49:33Z,42.805,6.029,13.2992,4.59976,2469.494,2019-5-21T16:49:47Z
2019-05-21T14:52:36Z,42.805,6.029,13.2979,4.59976,2469.517,2019-5-21T16:52:50Z
2019-05-21T14:55:39Z,42.805,6.029,13.2975,4.59966,2469.494,2019-5-21T16:55:53Z
2019-05-21T14:58:42Z,42.805,6.029,13.2981,4.59980,2469.517,2019-5-21T16:58:56Z
2019-05-21T15:01:45Z,42.805,6.029,13.2991,4.59974,2469.48,2019-5-21T17:01:59Z
2019-05-21T15:04:48Z,42.805,6.029,13.2992,4.59973,2469.48,2019-5-21T17:05:02Z
2019-05-21T15:07:51Z,42.805,6.029,13.2981,4.59979,2469.517,2019-5-21T17:08:05Z
2019-05-21T15:10:54Z,42.805,6.029,13.2989,4.59970,2469.494,2019-5-21T17:11:08Z
2019-05-21T15:13:57Z,42.805,6.029,13.2979,4.59978,2469.503,2019-5-21T17:14:11Z